{"data":{"norad_id":63795,"epoch":"2026-05-24T22:51:48.041568Z","epoch_age_seconds":86102,"freshness":"FRESH","line1":"1 63795U 25091W   26144.95263937  .00028563  00000+0  10429-2 0  9999","line2":"2 63795  43.0018 342.0044 0001694 261.5106  98.5554 15.27598121 60560","mean_motion":15.27598121,"eccentricity":0.0001694,"inclination_deg":43.0018,"raan_deg":342.0044,"arg_perigee_deg":261.5106,"mean_anomaly_deg":98.5554,"bstar":0.0010429,"rev_number":6056,"period_min":94.265630482534,"perigee_km":481.83256005006,"apogee_km":484.15711151603,"semimajor_km":6861.131835783,"source":"CELESTRAK","updated_at":"2026-05-25T13:38:20.137006Z"}}